WESTFORD NEEDLES, 3257

Orbit data source: Space-Track

WESTFORD NEEDLES, 3257 is space debris in LEO originally from a launch on Thu, 09 May 1963 UTC launched from the Air Force Western Test Range (AFWTR). Debris objects in space refer to the collection of defunct objects orbiting the Earth. Examples of debris include non-operational satellites, rocket bodies, and fragments generated from explosions, collisions, or faulty payload assembly.

Loading next visibility...
Identifier
3257, 1963-014BX
Orbit
LEO
Country
Flag of USUS
Related business
Manufacturer
Unknown
Mission
Spacecraft
Bus & Motor
Unknown
Mass
Unknown
Launch date (UTC)
1963-05-09 (63 years ago)
Launch vehicle
Unknown
Launch site
Air Force Western Test Range (AFWTR)
Object type
Payload
Rocket body
Debris
Shape & HBR
Unknown shape, 1.1 m
Radar Cross Section
Medium (>0.1 m² and <1 m²)

Expand to show TLE details & history
Last TLE update: 2 days ago

TLE from 2 days ago
0 WESTFORD NEEDLES
1 03257U 63014BX  25316.56769769  .00000026  00000-0  10071-1 0  9991
2 03257  87.3416 168.7238 0312482  20.2626 341.0324  8.65326375 41198
Epoch: 2025-11-12T13:37Z
TLE epoch observation values (Epoch: 2025-11-12T13:37:29.080Z)
Latitude
-0.0001°
Longitude
-87.58541°
Altitude
3,350.803 km
Speed
6.495 km/s
True Right ascension
11h 14m 53s
True Declination
0° 00' 00"
Sunlit
Object was in daylight at epoch
Visualization orbit readout
Latitude
Unknown
Longitude
Unknown
Altitude
Unknown
Speed
Unknown
Apparent Right ascension
Unknown
Apparent Declination
Unknown
Sunlit
N/A
Visualization observer readout
Local Sidereal Time
20:48:32
Azimuth
Unknown
Elevation
Unknown
Doppler factor
Unknown
Orbital elements
Apogee altitude
3,954.645 km
Perigee altitude
3,328.451 km
Semi-major axis
10,019.685 km
Eccentricity
0.03125
Inclination
87.3416°
RAAN
168.7238°
Arg. of periapsis
20.2626°
True anomaly
339.82405°
Mean anomaly
341.0324°
Eccentric anomaly
340.43278°
Mean motion
2.16402 °/min
Orbital period
166.36 mins
BSTAR
0.010071

Documentation

Showing up to 5 results
|